Time,TemperatureF,DewpointF,PressureIn,WindDirection,WindDirectionDegrees,WindSpeedMPH,WindSpeedGustMPH,Humidity,HourlyPrecipIn,Conditions,Clouds,dailyrainin,SoftwareType,DateUTC
2013-02-09 00:01:00,43.0,20.0,29.78,SSW,205,3.0,6.0,39,0.00,,,0.00,,2013-02-09 07:01:00,
2013-02-09 00:11:00,43.0,20.0,29.78,SSW,205,3.0,6.0,39,0.00,,,0.00,,2013-02-09 07:11:00,
2013-02-09 00:21:00,43.0,20.0,29.78,SSW,205,3.0,6.0,39,0.00,,,0.00,,2013-02-09 07:21:00,
2013-02-09 00:31:00,43.0,20.0,29.78,SSW,205,3.0,6.0,39,0.00,,,0.00,,2013-02-09 07:31:00,
2013-02-09 00:42:00,43.0,20.0,29.78,SSW,205,3.0,6.0,39,0.00,,,0.00,,2013-02-09 07:42:00,
2013-02-09 00:51:00,39.0,19.0,29.77,ESE,110,0.0,1.0,44,0.00,,,0.00,,2013-02-09 07:51:00,
2013-02-09 01:01:00,37.0,18.0,29.77,North,0,0.0,0.0,45,0.00,,,0.00,,2013-02-09 08:01:00,
2013-02-09 01:11:00,37.0,18.0,29.77,North,0,0.0,0.0,45,0.00,,,0.00,,2013-02-09 08:11:00,
2013-02-09 01:21:00,35.0,18.0,29.77,North,0,0.0,0.0,49,0.00,,,0.00,,2013-02-09 08:21:00,
2013-02-09 01:31:00,35.0,19.0,29.77,North,0,0.0,0.0,51,0.00,,,0.00,,2013-02-09 08:31:00,
2013-02-09 01:42:00,35.0,19.0,29.77,North,0,0.0,0.0,51,0.00,,,0.00,,2013-02-09 08:42:00,
2013-02-09 01:52:00,35.0,19.0,29.77,North,0,0.0,0.0,51,0.00,,,0.00,,2013-02-09 08:52:00,
2013-02-09 02:03:00,33.0,18.0,29.75,North,0,0.0,0.0,53,0.00,,,0.00,,2013-02-09 09:03:00,
2013-02-09 02:11:00,33.0,18.0,29.75,North,0,0.0,0.0,53,0.00,,,0.00,,2013-02-09 09:11:00,
2013-02-09 02:21:00,34.0,19.0,29.75,North,0,0.0,0.0,53,0.00,,,0.00,,2013-02-09 09:21:00,
2013-02-09 02:31:00,34.0,19.0,29.74,North,0,0.0,0.0,54,0.00,,,0.00,,2013-02-09 09:31:00,
2013-02-09 02:41:00,34.0,19.0,29.74,North,0,0.0,0.0,54,0.00,,,0.00,,2013-02-09 09:41:00,
2013-02-09 02:51:00,34.0,19.0,29.73,North,0,0.0,0.0,54,0.00,,,0.00,,2013-02-09 09:51:00,
2013-02-09 03:01:00,31.0,18.0,29.73,WSW,246,0.0,1.0,58,0.00,,,0.00,,2013-02-09 10:01:00,
2013-02-09 03:11:00,31.0,18.0,29.73,WSW,246,0.0,1.0,58,0.00,,,0.00,,2013-02-09 10:11:00,
2013-02-09 03:21:00,31.0,18.0,29.73,WSW,246,0.0,1.0,58,0.00,,,0.00,,2013-02-09 10:21:00,
2013-02-09 03:31:00,31.0,18.0,29.73,WSW,246,0.0,1.0,58,0.00,,,0.00,,2013-02-09 10:31:00,
2013-02-09 03:42:00,31.0,18.0,29.73,WSW,246,0.0,1.0,58,0.00,,,0.00,,2013-02-09 10:42:00,
2013-02-09 03:51:00,32.0,19.0,29.72,North,0,0.0,0.0,58,0.00,,,0.00,,2013-02-09 10:51:00,
2013-02-09 04:01:00,32.0,19.0,29.72,North,0,0.0,0.0,58,0.00,,,0.00,,2013-02-09 11:01:00,
2013-02-09 04:11:00,32.0,19.0,29.72,North,0,0.0,0.0,58,0.00,,,0.00,,2013-02-09 11:11:00,
2013-02-09 04:22:00,32.0,17.0,29.70,SW,219,0.0,1.0,54,0.00,,,0.00,,2013-02-09 11:22:00,
2013-02-09 04:31:00,32.0,16.0,29.70,SW,218,0.0,1.0,52,0.00,,,0.00,,2013-02-09 11:31:00,
2013-02-09 04:42:00,32.0,16.0,29.70,SW,218,0.0,1.0,52,0.00,,,0.00,,2013-02-09 11:42:00,
2013-02-09 04:52:00,32.0,16.0,29.70,SW,218,0.0,1.0,52,0.00,,,0.00,,2013-02-09 11:52:00,
2013-02-09 05:02:00,31.0,13.0,29.70,SW,218,0.0,1.0,47,0.00,,,0.00,,2013-02-09 12:02:00,
2013-02-09 05:11:00,31.0,13.0,29.70,SW,218,0.0,1.0,47,0.00,,,0.00,,2013-02-09 12:11:00,
2013-02-09 05:21:00,30.0,12.0,29.70,SSW,204,0.0,1.0,46,0.00,,,0.00,,2013-02-09 12:21:00,
2013-02-09 05:32:00,31.0,12.0,29.70,SSW,205,0.0,1.0,44,0.00,,,0.00,,2013-02-09 12:32:00,
2013-02-09 05:42:00,31.0,12.0,29.70,SSW,205,0.0,1.0,44,0.00,,,0.00,,2013-02-09 12:42:00,
2013-02-09 05:52:00,32.0,10.0,29.69,SSW,208,0.0,2.0,40,0.00,,,0.00,,2013-02-09 12:52:00,
2013-02-09 06:02:00,32.0,7.0,29.69,SSW,200,0.0,3.0,35,0.00,,,0.00,,2013-02-09 13:02:00,
2013-02-09 06:11:00,32.0,7.0,29.69,SSW,200,0.0,3.0,35,0.00,,,0.00,,2013-02-09 13:11:00,
2013-02-09 06:22:00,32.0,7.0,29.69,SSW,200,0.0,3.0,35,0.00,,,0.00,,2013-02-09 13:22:00,
2013-02-09 06:32:00,32.0,7.0,29.68,SSW,205,1.0,4.0,35,0.00,,,0.00,,2013-02-09 13:32:00,
2013-02-09 06:42:00,32.0,7.0,29.68,SSW,205,1.0,4.0,35,0.00,,,0.00,,2013-02-09 13:42:00,
2013-02-09 06:52:00,32.0,7.0,29.68,SSW,203,0.0,3.0,35,0.00,,,0.00,,2013-02-09 13:52:00,
2013-02-09 07:01:00,32.0,7.0,29.68,SSW,203,0.0,3.0,35,0.00,,,0.00,,2013-02-09 14:01:00,
2013-02-09 07:11:00,32.0,7.0,29.68,SSW,203,0.0,3.0,35,0.00,,,0.00,,2013-02-09 14:11:00,
2013-02-09 07:21:00,34.0,9.0,29.67,SSW,201,2.0,5.0,34,0.00,,,0.00,,2013-02-09 14:21:00,
2013-02-09 07:32:00,34.0,8.0,29.67,SSW,203,3.0,8.0,33,0.00,,,0.00,,2013-02-09 14:32:00,
2013-02-09 07:42:00,34.0,8.0,29.67,SSW,203,3.0,8.0,33,0.00,,,0.00,,2013-02-09 14:42:00,
2013-02-09 07:52:00,34.0,8.0,29.67,SSW,203,3.0,8.0,33,0.00,,,0.00,,2013-02-09 14:52:00,
2013-02-09 08:01:00,36.0,10.0,29.67,SSW,204,3.0,9.0,34,0.00,,,0.00,,2013-02-09 15:01:00,
2013-02-09 08:11:00,36.0,10.0,29.67,SSW,204,3.0,9.0,34,0.00,,,0.00,,2013-02-09 15:11:00,
2013-02-09 08:21:00,36.0,10.0,29.67,SSW,202,3.0,7.0,34,0.00,,,0.00,,2013-02-09 15:21:00,
2013-02-09 08:32:00,36.0,10.0,29.67,SSW,202,3.0,7.0,34,0.00,,,0.00,,2013-02-09 15:32:00,
2013-02-09 08:42:00,36.0,10.0,29.67,SSW,202,3.0,7.0,34,0.00,,,0.00,,2013-02-09 15:42:00,
2013-02-09 08:52:00,39.0,12.0,29.67,SSW,196,2.0,7.0,32,0.00,,,0.00,,2013-02-09 15:52:00,
2013-02-09 09:01:00,40.0,12.0,29.67,SSW,194,3.0,7.0,31,0.00,,,0.00,,2013-02-09 16:01:00,
2013-02-09 09:11:00,40.0,12.0,29.67,SSW,194,3.0,7.0,31,0.00,,,0.00,,2013-02-09 16:11:00,
2013-02-09 09:22:00,41.0,12.0,29.66,South,183,2.0,9.0,30,0.00,,,0.00,,2013-02-09 16:22:00,
2013-02-09 09:31:00,43.0,13.0,29.66,SSW,192,3.0,9.0,29,0.00,,,0.00,,2013-02-09 16:31:00,
2013-02-09 09:41:00,43.0,13.0,29.66,SSW,192,3.0,9.0,29,0.00,,,0.00,,2013-02-09 16:41:00,
2013-02-09 09:52:00,43.0,13.0,29.65,South,179,3.0,9.0,29,0.00,,,0.00,,2013-02-09 16:52:00,
2013-02-09 10:01:00,45.0,15.0,29.65,SSW,204,8.0,19.0,30,0.00,,,0.00,,2013-02-09 17:01:00,
2013-02-09 10:11:00,45.0,15.0,29.65,SSW,204,8.0,19.0,30,0.00,,,0.00,,2013-02-09 17:11:00,
2013-02-09 10:21:00,47.0,16.0,29.65,SSW,208,8.0,19.0,29,0.00,,,0.00,,2013-02-09 17:21:00,
2013-02-09 10:32:00,47.0,16.0,29.65,SSW,208,8.0,19.0,29,0.00,,,0.00,,2013-02-09 17:32:00,
2013-02-09 10:42:00,47.0,16.0,29.65,SSW,208,8.0,19.0,29,0.00,,,0.00,,2013-02-09 17:42:00,
2013-02-09 10:52:00,44.0,17.0,29.64,SSW,201,9.0,20.0,33,0.00,,,0.00,,2013-02-09 17:52:00,
2013-02-09 11:02:00,44.0,17.0,29.64,SSW,213,9.0,20.0,33,0.00,,,0.00,,2013-02-09 18:02:00,
2013-02-09 11:12:00,44.0,17.0,29.64,SSW,213,9.0,20.0,33,0.00,,,0.00,,2013-02-09 18:12:00,
2013-02-09 11:23:00,42.0,19.0,29.65,SW,223,9.0,22.0,40,0.00,,,0.00,,2013-02-09 18:23:00,
2013-02-09 11:32:00,39.0,24.0,29.67,WSW,246,12.0,24.0,54,0.00,,,0.00,,2013-02-09 18:32:00,
2013-02-09 11:42:00,39.0,24.0,29.67,WSW,246,12.0,24.0,54,0.00,,,0.00,,2013-02-09 18:42:00,
2013-02-09 11:51:00,40.0,22.0,29.65,WSW,249,11.0,23.0,48,0.00,,,0.00,,2013-02-09 18:51:00,
2013-02-09 12:01:00,42.0,21.0,29.65,WSW,254,10.0,20.0,43,0.00,,,0.00,,2013-02-09 19:01:00,
2013-02-09 12:11:00,42.0,21.0,29.65,WSW,254,10.0,20.0,43,0.00,,,0.00,,2013-02-09 19:11:00,
2013-02-09 12:22:00,42.0,22.0,29.65,WSW,256,8.0,18.0,45,0.00,,,0.00,,2013-02-09 19:22:00,
2013-02-09 12:32:00,42.0,20.0,29.66,SW,234,8.0,20.0,41,0.00,,,0.00,,2013-02-09 19:32:00,
2013-02-09 12:42:00,42.0,20.0,29.66,SW,234,8.0,20.0,41,0.00,,,0.00,,2013-02-09 19:42:00,
2013-02-09 12:52:00,42.0,20.0,29.66,SW,234,8.0,20.0,41,0.00,,,0.00,,2013-02-09 19:52:00,
2013-02-09 13:01:00,40.0,19.0,29.66,SW,230,8.0,15.0,42,0.00,,,0.00,,2013-02-09 20:01:00,
2013-02-09 13:11:00,40.0,19.0,29.66,SW,230,8.0,15.0,42,0.00,,,0.00,,2013-02-09 20:11:00,
2013-02-09 13:21:00,42.0,15.0,29.65,WSW,245,11.0,20.0,33,0.00,,,0.00,,2013-02-09 20:21:00,
2013-02-09 13:32:00,41.0,14.0,29.65,WSW,250,11.0,21.0,33,0.00,,,0.00,,2013-02-09 20:32:00,
2013-02-09 13:42:00,41.0,14.0,29.65,WSW,250,11.0,21.0,33,0.00,,,0.00,,2013-02-09 20:42:00,
2013-02-09 13:52:00,40.0,12.0,29.65,WSW,240,9.0,20.0,31,0.00,,,0.00,,2013-02-09 20:52:00,
2013-02-09 14:02:00,40.0,9.0,29.65,WSW,240,10.0,21.0,27,0.00,,,0.00,,2013-02-09 21:02:00,
2013-02-09 14:11:00,40.0,9.0,29.65,WSW,240,10.0,21.0,27,0.00,,,0.00,,2013-02-09 21:11:00,
2013-02-09 14:21:00,39.0,9.0,29.65,WSW,242,11.0,22.0,29,0.00,,,0.00,,2013-02-09 21:21:00,
2013-02-09 14:31:00,39.0,9.0,29.65,WSW,246,12.0,20.0,29,0.00,,,0.00,,2013-02-09 21:31:00,
2013-02-09 14:42:00,39.0,9.0,29.65,WSW,246,12.0,20.0,29,0.00,,,0.00,,2013-02-09 21:42:00,
2013-02-09 14:52:00,39.0,10.0,29.65,WSW,251,12.0,21.0,30,0.00,,,0.00,,2013-02-09 21:52:00,
2013-02-09 15:01:00,39.0,10.0,29.65,WSW,251,12.0,21.0,30,0.00,,,0.00,,2013-02-09 22:01:00,
2013-02-09 15:11:00,39.0,10.0,29.65,WSW,251,12.0,21.0,30,0.00,,,0.00,,2013-02-09 22:11:00,
2013-02-09 15:21:00,40.0,10.0,29.65,WSW,241,10.0,21.0,28,0.00,,,0.00,,2013-02-09 22:21:00,
2013-02-09 15:32:00,40.0,9.0,29.66,SW,234,9.0,18.0,27,0.00,,,0.00,,2013-02-09 22:32:00,
2013-02-09 15:42:00,40.0,9.0,29.66,SW,234,9.0,18.0,27,0.00,,,0.00,,2013-02-09 22:42:00,
2013-02-09 15:52:00,40.0,10.0,29.66,SW,234,9.0,22.0,28,0.00,,,0.00,,2013-02-09 22:52:00,
2013-02-09 16:01:00,40.0,9.0,29.67,WSW,240,8.0,23.0,27,0.00,,,0.00,,2013-02-09 23:01:00,
2013-02-09 16:11:00,40.0,9.0,29.67,WSW,240,8.0,23.0,27,0.00,,,0.00,,2013-02-09 23:11:00,
2013-02-09 16:21:00,40.0,8.0,29.66,SW,233,8.0,20.0,26,0.00,,,0.00,,2013-02-09 23:21:00,
2013-02-09 16:32:00,40.0,8.0,29.66,SW,233,8.0,20.0,26,0.00,,,0.00,,2013-02-09 23:32:00,
2013-02-09 16:42:00,40.0,8.0,29.66,SW,233,8.0,20.0,26,0.00,,,0.00,,2013-02-09 23:42:00,
2013-02-09 16:52:00,40.0,5.0,29.66,WSW,242,10.0,20.0,23,0.00,,,0.00,,2013-02-09 23:52:00,
2013-02-09 17:02:00,39.0,7.0,29.68,WSW,241,8.0,21.0,26,0.00,,,0.00,,2013-02-10 00:02:00,
2013-02-09 17:12:00,39.0,7.0,29.68,WSW,241,8.0,21.0,26,0.00,,,0.00,,2013-02-10 00:12:00,
2013-02-09 17:22:00,36.0,9.0,29.69,SW,231,9.0,19.0,32,0.00,,,0.00,,2013-02-10 00:22:00,
2013-02-09 17:32:00,35.0,11.0,29.70,WSW,239,8.0,19.0,37,0.00,,,0.00,,2013-02-10 00:32:00,
2013-02-09 17:42:00,35.0,11.0,29.70,WSW,239,8.0,19.0,37,0.00,,,0.00,,2013-02-10 00:42:00,
2013-02-09 17:51:00,34.0,12.0,29.71,WSW,247,9.0,18.0,40,0.00,,,0.00,,2013-02-10 00:51:00,
2013-02-09 18:01:00,34.0,12.0,29.71,WSW,247,9.0,18.0,40,0.00,,,0.00,,2013-02-10 01:01:00,
2013-02-09 18:12:00,34.0,12.0,29.71,WSW,247,9.0,18.0,40,0.00,,,0.00,,2013-02-10 01:12:00,
2013-02-09 18:21:00,32.0,15.0,29.72,WSW,240,8.0,16.0,48,0.00,,,0.00,,2013-02-10 01:21:00,
2013-02-09 18:32:00,31.0,15.0,29.73,WSW,242,7.0,18.0,52,0.00,,,0.00,,2013-02-10 01:32:00,
2013-02-09 18:42:00,31.0,15.0,29.73,WSW,242,7.0,18.0,52,0.00,,,0.00,,2013-02-10 01:42:00,
2013-02-09 18:52:00,31.0,16.0,29.73,WSW,240,6.0,17.0,53,0.00,,,0.00,,2013-02-10 01:52:00,
2013-02-09 19:01:00,31.0,16.0,29.73,WSW,240,6.0,17.0,53,0.00,,,0.00,,2013-02-10 02:01:00,
2013-02-09 19:11:00,31.0,16.0,29.73,WSW,240,6.0,17.0,53,0.00,,,0.00,,2013-02-10 02:11:00,
2013-02-09 19:22:00,30.0,18.0,29.74,WSW,247,6.0,13.0,61,0.00,,,0.00,,2013-02-10 02:22:00,
2013-02-09 19:32:00,30.0,18.0,29.74,WSW,247,6.0,13.0,61,0.00,,,0.00,,2013-02-10 02:32:00,
2013-02-09 19:42:00,30.0,18.0,29.74,WSW,247,6.0,13.0,61,0.00,,,0.00,,2013-02-10 02:42:00,
2013-02-09 19:52:00,30.0,18.0,29.74,WSW,247,6.0,13.0,61,0.00,,,0.00,,2013-02-10 02:52:00,
2013-02-09 20:01:00,28.0,18.0,29.75,WSW,242,5.0,10.0,67,0.00,,,0.00,,2013-02-10 03:01:00,
2013-02-09 20:11:00,28.0,18.0,29.75,WSW,242,5.0,10.0,67,0.00,,,0.00,,2013-02-10 03:11:00,
2013-02-09 20:21:00,28.0,18.0,29.75,SW,236,6.0,13.0,65,0.00,,,0.00,,2013-02-10 03:21:00,
2013-02-09 20:32:00,28.0,18.0,29.75,WSW,238,4.0,12.0,65,0.00,,,0.00,,2013-02-10 03:32:00,
2013-02-09 20:41:00,28.0,18.0,29.75,WSW,238,4.0,12.0,65,0.00,,,0.00,,2013-02-10 03:41:00,
2013-02-09 20:51:00,28.0,18.0,29.76,WSW,239,5.0,12.0,65,0.00,,,0.00,,2013-02-10 03:51:00,
2013-02-09 21:01:00,28.0,18.0,29.77,SW,228,2.0,10.0,65,0.00,,,0.00,,2013-02-10 04:01:00,
2013-02-09 21:11:00,28.0,18.0,29.77,SW,228,2.0,10.0,65,0.00,,,0.00,,2013-02-10 04:11:00,
2013-02-09 21:21:00,28.0,18.0,29.75,SW,228,3.0,11.0,65,0.00,,,0.00,,2013-02-10 04:21:00,
2013-02-09 21:32:00,28.0,18.0,29.76,SW,230,3.0,8.0,65,0.00,,,0.00,,2013-02-10 04:32:00,
2013-02-09 21:42:00,28.0,18.0,29.76,SW,230,3.0,8.0,65,0.00,,,0.00,,2013-02-10 04:42:00,
2013-02-09 21:52:00,28.0,18.0,29.76,SW,230,3.0,8.0,65,0.00,,,0.00,,2013-02-10 04:52:00,
2013-02-09 22:01:00,28.0,17.0,29.78,WSW,243,2.0,6.0,64,0.00,,,0.00,,2013-02-10 05:01:00,
2013-02-09 22:11:00,28.0,17.0,29.78,WSW,243,2.0,6.0,64,0.00,,,0.00,,2013-02-10 05:11:00,
2013-02-09 22:22:00,29.0,16.0,29.79,WSW,243,2.0,8.0,59,0.00,,,0.00,,2013-02-10 05:22:00,
2013-02-09 22:31:00,29.0,16.0,29.79,WSW,243,2.0,8.0,59,0.00,,,0.00,,2013-02-10 05:31:00,
2013-02-09 22:41:00,29.0,16.0,29.79,WSW,243,2.0,8.0,59,0.00,,,0.00,,2013-02-10 05:41:00,
2013-02-09 22:52:00,28.0,17.0,29.81,SW,236,1.0,4.0,62,0.00,,,0.00,,2013-02-10 05:52:00,
2013-02-09 23:01:00,27.0,17.0,29.81,SW,218,0.0,4.0,65,0.00,,,0.00,,2013-02-10 06:01:00,
2013-02-09 23:11:00,27.0,17.0,29.81,SW,218,0.0,4.0,65,0.00,,,0.00,,2013-02-10 06:11:00,
2013-02-09 23:21:00,27.0,17.0,29.81,WSW,241,2.0,7.0,65,0.00,,,0.00,,2013-02-10 06:21:00,
2013-02-09 23:32:00,28.0,17.0,29.80,WSW,247,3.0,7.0,64,0.00,,,0.00,,2013-02-10 06:32:00,
2013-02-09 23:42:00,28.0,17.0,29.80,WSW,247,3.0,7.0,64,0.00,,,0.00,,2013-02-10 06:42:00,
2013-02-09 23:51:00,29.0,16.0,29.80,WSW,246,6.0,12.0,59,0.00,,,0.00,,2013-02-10 06:51:00,